Location: *
(46.4833°N, 7.6667°E)
Time: 04:27:05
(UTC+00:00)

STARLINK-1043 - Pass Details

Date: 27 February 2020
Orbit: 549 x 550 km, 53.0° (Epoch: 09 April)

Event Time Altitude Azimuth Distance (km) Brightness Sun altitude
Rises 17:49:18 0° 222° (SW) 2,708 7.9 -7.3°
Reaches altitude 10° 17:51:34 10° 217° (SW) 1,819 6.9 -7.7°
Maximum altitude 17:55:34 50° 142° (SE) 705 3.9 -8.3°
Enters shadow 17:59:32 10° 67° (ENE) 1,804 5.7 -9.0°
